Hourly Weather Kizielany

Today, 30 July, Friday

Time Temperature Precipitation Wind Pressure Humidity
00:00 +18°C° 0 mm 3 mps 743 mmHg 78%
01:00 +18°C° 0 mm 3 mps 743 mmHg 76%
02:00 +18°C° 0 mm 3 mps 743 mmHg 74%
03:00 +17°C° 0 mm 3 mps 743 mmHg 77%
04:00 +16°C° 0 mm 3 mps 743 mmHg 79%
05:00 +14°C° 0 mm 3 mps 743 mmHg 82%
06:00 +17°C° 0 mm 3 mps 743 mmHg 76%
07:00 +18°C° 0 mm 3 mps 743 mmHg 70%
08:00 +20°C° 0 mm 4 mps 743 mmHg 64%
09:00 +21°C° 0 mm 4 mps 743 mmHg 59%
10:00 +22°C° 0 mm 5 mps 743 mmHg 53%
11:00 +23°C° 0 mm 6 mps 743 mmHg 47%
12:00 +24°C° 0 mm 6 mps 743 mmHg 46%
13:00 +24°C° 0 mm 7 mps 742 mmHg 44%
14:00 +26°C° 0 mm 7 mps 742 mmHg 42%
15:00 +26°C° 0 mm 7 mps 742 mmHg 44%
16:00 +24°C° 0 mm 6 mps 742 mmHg 46%
17:00 +24°C° 0 mm 6 mps 742 mmHg 48%
18:00 +23°C° 0 mm 5 mps 742 mmHg 52%
19:00 +22°C° 0 mm 4 mps 741 mmHg 56%
20:00 +20°C° 0 mm 4 mps 741 mmHg 60%
21:00 +19°C° 0 mm 4 mps 741 mmHg 64%
22:00 +18°C° 0 mm 3 mps 741 mmHg 67%
23:00 +17°C° 0 mm 3 mps 741 mmHg 71%

Tomorrow, 31 July, Saturday

Time Temperature Precipitation Wind Pressure Humidity
00:00 +17°C° 0 mm 3 mps 741 mmHg 73%
01:00 +16°C° 0 mm 3 mps 741 mmHg 75%
02:00 +16°C° 0 mm 3 mps 742 mmHg 77%
03:00 +14°C° 0 mm 3 mps 742 mmHg 76%
04:00 +14°C° 0 mm 3 mps 742 mmHg 75%
05:00 +14°C° 0 mm 2 mps 742 mmHg 74%
06:00 +16°C° 0 mm 3 mps 742 mmHg 70%
07:00 +18°C° 0 mm 3 mps 742 mmHg 65%
08:00 +19°C° 0 mm 3 mps 742 mmHg 60%
09:00 +21°C° 0 mm 3 mps 742 mmHg 56%
10:00 +24°C° 0 mm 3 mps 742 mmHg 52%
11:00 +25°C° 0 mm 4 mps 742 mmHg 48%
12:00 +26°C° 0 mm 4 mps 742 mmHg 46%
13:00 +27°C° 0 mm 3 mps 742 mmHg 44%
14:00 +28°C° 0 mm 3 mps 742 mmHg 42%
15:00 +28°C° 0 mm 3 mps 741 mmHg 42%
16:00 +28°C° 0 mm 2 mps 741 mmHg 42%
17:00 +29°C° 0 mm 1 mps 741 mmHg 42%
18:00 +26°C° 0.1 mm 2 mps 741 mmHg 54%
19:00 +24°C° 0.1 mm 3 mps 740 mmHg 66%
20:00 +21°C° 0.1 mm 4 mps 740 mmHg 78%
21:00 +20°C° 0.7 mm 4 mps 740 mmHg 84%
22:00 +19°C° 0.7 mm 4 mps 741 mmHg 89%
23:00 +19°C° 0.7 mm 4 mps 741 mmHg 95%

Day after tomorrow, 1 August, Sunday

Time Temperature Precipitation Wind Pressure Humidity
00:00 +18°C° 0.2 mm 4 mps 741 mmHg 95%
01:00 +18°C° 0.2 mm 4 mps 741 mmHg 96%
02:00 +17°C° 0.2 mm 3 mps 741 mmHg 96%
03:00 +16°C° 0 mm 3 mps 741 mmHg 95%
04:00 +16°C° 0 mm 3 mps 741 mmHg 94%
05:00 +14°C° 0 mm 3 mps 741 mmHg 92%
06:00 +16°C° 0 mm 3 mps 742 mmHg 86%
07:00 +17°C° 0 mm 3 mps 742 mmHg 80%
08:00 +19°C° 0 mm 4 mps 742 mmHg 74%
09:00 +20°C° 0 mm 4 mps 742 mmHg 66%
10:00 +22°C° 0 mm 4 mps 743 mmHg 58%
11:00 +23°C° 0 mm 5 mps 743 mmHg 50%
12:00 +25°C° 0 mm 4 mps 743 mmHg 48%
13:00 +25°C° 0 mm 4 mps 743 mmHg 47%
14:00 +26°C° 0 mm 4 mps 743 mmHg 46%
15:00 +25°C° 0 mm 3 mps 742 mmHg 51%
16:00 +24°C° 0 mm 2 mps 742 mmHg 57%
17:00 +23°C° 0 mm 2 mps 742 mmHg 62%
18:00 +20°C° 0.1 mm 2 mps 742 mmHg 69%
19:00 +19°C° 0.1 mm 3 mps 742 mmHg 76%
20:00 +17°C° 0.1 mm 3 mps 742 mmHg 83%
21:00 +17°C° 1.1 mm 3 mps 742 mmHg 87%
22:00 +16°C° 1.1 mm 2 mps 742 mmHg 91%
23:00 +15°C° 1.1 mm 2 mps 742 mmHg 96%

2 August, Monday

Time Temperature Precipitation Wind Pressure Humidity
00:00 +15°C° 0.6 mm 2 mps 742 mmHg 96%
01:00 +16°C° 0.6 mm 2 mps 741 mmHg 96%
02:00 +16°C° 0.6 mm 2 mps 741 mmHg 97%
03:00 +16°C° 0.1 mm 2 mps 741 mmHg 97%
04:00 +15°C° 0.1 mm 2 mps 741 mmHg 97%
05:00 +15°C° 0.1 mm 2 mps 740 mmHg 97%
06:00 +15°C° 0.7 mm 2 mps 741 mmHg 97%
07:00 +15°C° 0.7 mm 2 mps 741 mmHg 97%
08:00 +14°C° 0.7 mm 3 mps 741 mmHg 97%
09:00 +14°C° 1.3 mm 3 mps 741 mmHg 96%
10:00 +14°C° 1.3 mm 3 mps 741 mmHg 95%
11:00 +16°C° 1.3 mm 3 mps 742 mmHg 94%
12:00 +17°C° 0.1 mm 3 mps 742 mmHg 83%
13:00 +19°C° 0.1 mm 3 mps 742 mmHg 73%
14:00 +21°C° 0.1 mm 3 mps 742 mmHg 62%
15:00 +21°C° 0.2 mm 3 mps 742 mmHg 64%
16:00 +21°C° 0.2 mm 2 mps 742 mmHg 67%
17:00 +21°C° 0.2 mm 2 mps 742 mmHg 70%
18:00 +19°C° 0.4 mm 3 mps 742 mmHg 75%
19:00 +18°C° 0.4 mm 3 mps 742 mmHg 81%
20:00 +17°C° 0.4 mm 3 mps 742 mmHg 86%
21:00 +16°C° 0.3 mm 3 mps 743 mmHg 89%
22:00 +14°C° 0.3 mm 3 mps 743 mmHg 92%
23:00 +14°C° 0.3 mm 3 mps 743 mmHg 94%

3 August, Tuesday

Time Temperature Precipitation Wind Pressure Humidity
00:00 +13°C° 0 mm 3 mps 743 mmHg 94%
01:00 +13°C° 0 mm 3 mps 744 mmHg 94%
02:00 +12°C° 0 mm 3 mps 744 mmHg 94%
03:00 +12°C° 0 mm 3 mps 744 mmHg 93%
04:00 +11°C° 0 mm 3 mps 744 mmHg 93%
05:00 +11°C° 0 mm 3 mps 744 mmHg 93%
06:00 +12°C° 0 mm 4 mps 744 mmHg 88%
07:00 +14°C° 0 mm 5 mps 745 mmHg 83%
08:00 +15°C° 0 mm 5 mps 745 mmHg 79%
09:00 +17°C° 0 mm 6 mps 745 mmHg 73%
10:00 +19°C° 0 mm 6 mps 745 mmHg 67%
11:00 +21°C° 0 mm 6 mps 746 mmHg 61%
12:00 +21°C° 0 mm 6 mps 746 mmHg 59%
13:00 +21°C° 0 mm 6 mps 746 mmHg 57%
14:00 +21°C° 0 mm 5 mps 746 mmHg 55%
15:00 +21°C° 0 mm 5 mps 746 mmHg 56%
16:00 +21°C° 0 mm 5 mps 746 mmHg 58%
17:00 +21°C° 0 mm 5 mps 746 mmHg 59%
18:00 +20°C° 0 mm 4 mps 746 mmHg 64%
19:00 +19°C° 0 mm 3 mps 747 mmHg 70%
20:00 +17°C° 0 mm 2 mps 747 mmHg 76%
21:00 +16°C° 0 mm 2 mps 747 mmHg 78%
22:00 +15°C° 0 mm 2 mps 747 mmHg 81%
23:00 +14°C° 0 mm 2 mps 748 mmHg 84%

4 August, Wednesday

Time Temperature Precipitation Wind Pressure Humidity
00:00 +14°C° 0 mm 1 mps 748 mmHg 86%
01:00 +13°C° 0 mm 1 mps 748 mmHg 87%
02:00 +13°C° 0 mm 1 mps 748 mmHg 89%
03:00 +13°C° 0 mm 1 mps 748 mmHg 88%
04:00 +12°C° 0 mm 0 mps 748 mmHg 88%
05:00 +12°C° 0 mm 0 mps 749 mmHg 88%
06:00 +14°C° 0 mm 0 mps 749 mmHg 82%
07:00 +15°C° 0 mm 0 mps 749 mmHg 76%
08:00 +17°C° 0 mm 0 mps 749 mmHg 70%
09:00 +21°C° 0 mm 1 mps 749 mmHg 64%
10:00 +22°C° 0 mm 1 mps 749 mmHg 59%
11:00 +24°C° 0 mm 1 mps 749 mmHg 53%
12:00 +24°C° 0 mm 1 mps 749 mmHg 51%
13:00 +25°C° 0 mm 1 mps 749 mmHg 49%
14:00 +25°C° 0 mm 1 mps 748 mmHg 47%
15:00 +25°C° 0 mm 1 mps 748 mmHg 50%
16:00 +24°C° 0 mm 1 mps 748 mmHg 53%
17:00 +24°C° 0 mm 2 mps 748 mmHg 56%
18:00 +23°C° 0 mm 2 mps 748 mmHg 59%
19:00 +21°C° 0 mm 2 mps 748 mmHg 63%
20:00 +20°C° 0 mm 2 mps 748 mmHg 66%
21:00 +19°C° 0 mm 2 mps 748 mmHg 67%
22:00 +19°C° 0 mm 2 mps 748 mmHg 67%
23:00 +18°C° 0 mm 2 mps 748 mmHg 68%
Show more